Back to catalog

IRIDIUM 39

AliveCommunicationsPO
NORAD 25042·PAYLOAD·🇺🇸 United States

Launched Nov 9, 1997 from Vandenberg Space Force Base

Loading…

Next Passes (next 24 hours)

TLE

FreshSource: Space-Track

Epoch: Sep 14, 2026, 15:02 UTC

1 25042U 97069D   26257.62690226  .00000441  00000-0  10869-3 0  9995
2 25042  86.3950  16.1556 0016131 221.9073 138.0898 14.49842676514790

Track IRIDIUM 39 in real time with AllMySat

Download on the App Store